Flag for U.S.A. Weather past 2 weeks in Long Beach, California, U.S.A.

Now
61 °F

Partly cloudy.


Feels Like: 61 °F
Forecast: 50 / 68 °F
Wind: 6 mph from Southeast

Location: Long Beach Airport

Current Time: Dec 20, 2014 at 6:59:56 PM

Latest Report: Dec 20, 2014 at 5:53 PM


Visibility: 10 mi

Pressure: 30.12 "Hg

Humidity: 81%

Dew point: 55 °F

Location of Long BeachLocation

Historic Weather in Long Beach — Graph

°F

Long Beach temperature yesterday

Maximum temperature yesterday: 66 °F (at 12:53 PM)
Minimum temperature yesterday: 49 °F (at 5:53 AM)
Average temperature yesterday: 57 °F

Past Weeks' High & Low Weather Summary

 TemperatureHumidityPressure
High80 °F (Dec 8, 1:53 PM)100% (Dec 10, 1:53 AM)30.24 "Hg (Dec 10, 1:53 AM)
Low47 °F (Dec 15, 6:53 AM)30% (Dec 8, 1:53 PM)29.83 "Hg (Dec 12, 2:53 AM)
Average59 °F77%30.07 "Hg
* Reported Dec 5 5:53 PM — Dec 20 5:53 PM, Long Beach, Weather by CustomWeather, © 2014

Note: Actual official high and low records may vary slightly from our data, if they occured in-between our weather recording intervals... More about our weather records

Advertising

Long Beach weather history for previous 24 hours

 ConditionsComfort  
Time TempWeatherWind HumidityBarometerVisibility
5:53 PM
Dec 20
61 °FPartly cloudy.6 mph81%30.12 "Hg10 mi
4:53 PM61 °FOvercast.3 mph81%30.13 "Hg10 mi
3:53 PM62 °FOvercast.3 mph75%30.11 "Hg9 mi
2:53 PM62 °FPartly sunny.5 mph70%30.11 "Hg8 mi
1:53 PM63 °FOvercast.5 mph68%30.12 "Hg8 mi
12:53 PM63 °FOvercast.6 mph68%30.14 "Hg9 mi
11:53 AM62 °FOvercast.3 mph67%30.16 "Hg8 mi
10:53 AM61 °FHigh level clouds.No wind70%30.18 "Hg6 mi
9:53 AM59 °FSunny.No wind75%30.19 "Hg6 mi
8:53 AM54 °FSunny.3 mph86%30.19 "Hg5 mi
7:53 AM52 °FSunny.No wind89%30.17 "Hg5 mi
6:53 AM50 °FSunny.No wind93%30.17 "Hg7 mi
5:53 AM49 °FFog.3 mph93%30.15 "Hg6 mi
4:53 AM51 °FFog.No wind92%30.14 "Hg6 mi
3:53 AM51 °FFog.No wind92%30.14 "Hg6 mi
2:53 AM51 °FFog.No wind92%30.16 "Hg6 mi
1:53 AM52 °FClear.No wind89%30.14 "Hg7 mi
12:53 AM53 °FClear.No wind89%30.17 "Hg8 mi
11:53 PM
Dec 19
53 °FClear.No wind89%30.18 "Hg8 mi
10:53 PM55 °FClear.3 mph87%30.16 "Hg10 mi
9:53 PM58 °FClear.8 mph81%30.19 "Hg10 mi
8:53 PM58 °FClear.8 mph81%30.17 "Hg10 mi
7:53 PM60 °FClear.5 mph72%30.16 "Hg10 mi
6:53 PM60 °FClear.8 mph75%30.17 "Hg10 mi
Weather by CustomWeather, © 2014

See weather overviewHow to use our weather pages